Location: Skyline at Page Mill Rd.
(37.3150°N, 122.1872°W)
Time: 11:57:39
(UTC-07:00)

Hubble Space Telescope - Visible Passes

Search period start: 06 July 2020 00:00
Search period end: 16 July 2020 00:00
Orbit: 536 x 540 km, 28.5° (Epoch: 05 July)

Date Brightness Start Highest point End Pass type
(mag) Time Alt. Az. Time Alt. Az. Time Alt. Az.
07 Jul 2.9 21:21:40 10° SSE 21:22:16 10° SSE 21:22:47 10° SSE visible
08 Jul 2.7 21:09:41 10° S 21:11:27 12° SSE 21:13:11 10° SE visible
09 Jul 2.6 20:58:20 10° SSW 21:00:38 14° SSE 21:02:55 10° SE visible
09 Jul 2.9 22:37:55 10° SW 22:38:58 15° SW 22:38:58 15° SW visible
10 Jul 2.4 22:27:06 10° SW 22:29:05 20° SSW 22:29:05 20° SSW visible
11 Jul 2.2 22:16:20 10° SW 22:19:05 23° SSW 22:19:05 23° SSW visible
12 Jul 2.1 22:05:35 10° WSW 22:08:52 23° S 22:08:57 23° S visible
13 Jul 2.1 21:54:52 10° WSW 21:58:06 22° S 21:58:45 21° S visible
14 Jul 2.3 21:44:12 10° WSW 21:47:19 21° S 21:48:31 18° SSE visible
15 Jul 2.5 21:33:34 10° WSW 21:36:32 19° S 21:38:14 15° SSE visible
